Temp
82 74 70 76 80 82 81 81 81 86 93 89 85 74 73 72 72 67 78 87 87 86 91 94 95 95 93 91 87 87 86 83 84 84 84 84 84 86 84 85 86 88 87 87
77 70 79 84 84 82 81 78 80 87 92 90 86 74 72 70 72 67 72 86 88 88 87 91 92 93 92 88 86 85 84 82 83 85 84 86 86 88 88 89 88 88 90 87
73 79 83 81 81 79 79 77 79 80 88 92 87 70 66 70 77 78 81 91 91 90 86 89 90 91 92 88 86 84 84 82 84 85 84 85 86 85 86 84 87 89 90 89
77 83 82 79 77 81 73 84 82 81 79 73 88 70 67 68 66 79 81 77 91 92 90 90 91 91 91 89 89 85 84 83 83 84 83 83 83 83 85 74 87 88 89 88
74 78 78 77 79 82 77 86 82 81 77 77 79 74 81 76 74 74 70 76 91 93 93 91 92 91 93 91 90 87 84 83 83 82 84 84 82 86 88 87 83 84 86 89
78 87 84 82 84 84 86 81 80 80 77 66 74 76 76 72 73 72 81 83 88 94 95 95 94 93 93 93 91 88 83 81 82 82 82 82 81 84 85 85 84 86 86 87
74 76 83 86 78 83 81 75 62 61 62 62 77 73 77 87 83 80 79 87 93 93 94 94 93 92 91 90 90 88 82 80 81 81 82 83 82 82 83 84 86 84 86 86
65 63 77 83 79 75 76 74 63 53 59 65 77 69 77 91 95 92 91 95 95 95 92 94 93 93 91 91 89 88 82 80 81 82 80 81 83 85 85 86 87 87 88 89
62 65 82 82 84 81 75 70 80 70 73 67 73 78 86 92 92 91 83 82 86 78 95 95 96 95 93 91 89 87 83 81 81 82 81 80 82 83 84 85 86 87 86 89
67 57 74 79 83 83 77 82 68 71 57 56 68 73 75 82 87 91 88 75 73 72 82 98 97 96 95 94 92 90 86 82 82 82 83 83 81 83 83 83 84 85 88 89
69 64 64 73 70 70 73 71 73 74 71 60 60 70 89 84 88 90 88 77 70 72 75 89 98 97 96 95 94 92 89 84 83 84 83 82 82 83 83 85 85 85 85 87
67 62 56 64 76 81 77 71 73 63 60 69 69 72 90 91 94 95 94 88 87 80 70 71 92 98 97 95 95 93 92 90 86 85 83 83 83 82 83 82 86 86 85 87
62 58 52 56 67 75 71 73 74 73 73 62 64 69 91 92 93 95 94 96 94 92 79 78 90 97 95 95 93 94 93 93 91 87 86 84 84 83 82 82 84 86 84 84
63 57 52 49 58 63 61 69 72 71 65 66 68 72 81 84 75 87 87 88 90 90 93 94 91 97 96 95 92 92 94 95 93 90 87 84 83 83 84 84 83 84 85 84
61 50 55 58 60 60 62 64 67 66 68 63 67 72 62 65 71 70 87 87 87 87 89 87 91 87 90 93 91 92 94 92 93 89 87 85 84 84 84 84 84 84 84 85
60 49 52 49 58 58 57 62 66 67 67 67 69 66 67 68 72 78 75 83 83 84 85 84 84 86 81 83 92 92 92 92 92 88 87 86 84 84 84 84 84 84 84 84
56 43 46 42 54 55 49 59 64 65 69 68 61 70 76 72 73 64 71 75 77 79 79 80 81 84 85 80 80 92 92 93 90 89 88 86 85 84 83 84 84 83 83 84
55 53 44 42 47 34 55 69 69 66 68 73 72 73 75 71 69 73 75 75 76 75 76 77 81 82 84 85 89 88 96 90 89 88 88 87 85 84 84 83 83 83 84 83
62 54 43 36 41 44 52 57 55 55 62 67 63 65 64 67 73 63 70 75 75 74 75 76 79 81 81 82 85 87 87 91 90 88 87 87 86 85 84 82 82 83 84 84
56 57 49 46 37 35 47 59 63 63 52 61 60 58 59 64 63 57 67 73 75 75 75 73 76 80 80 81 83 85 87 87 88 88 89 89 88 86 84 83 83 84 84 85
43 39 38 43 42 49 54 55 63 43 48 60 61 60 58 56 59 64 68 70 73 74 73 73 74 74 73 75 76 76 83 86 89 91 90 88 88 85 85 84 84 84 84 85
39 37 37 41 39 37 60 59 49 54 59 61 60 60 59 61 61 63 66 68 70 72 71 72 70 71 73 72 70 70 74 73 86 90 89 88 87 89 90 84 84 84 83 82
37 38 34 39 41 53 55 50 51 61 59 61 58 59 60 59 59 62 63 66 67 70 69 70 69 69 70 69 67 65 68 71 73 88 86 86 87 88 87 84 83 83 83 84
47 46 39 41 50 49 49 52 50 51 51 55 58 59 60 58 59 60 63 64 65 67 67 68 68 68 67 67 64 64 66 68 70 86 86 86 86 84 86 88 86 85 84 83
45 43 41 41 48 43 51 46 48 49 51 52 56 58 58 58 58 58 60 61 63 65 66 66 67 67 66 65 64 63 65 67 68 80 86 86 87 83 85 86 86 86 87 86
42 37 35 36 40 37 39 44 46 45 47 49 50 52 55 58 58 59 60 62 64 63 65 65 66 67 66 65 63 62 63 64 64 73 73 83 86 85 85 85 83 56 65 58
MSLP
1002.96 1002.67 1001.86 1001.43 1001.08 1000.16 999.06 997.76 996.73 996.28 996.06 996.75 998.50 1001.67 1003.71 1005.52 1006.65 1006.63 1006.04 1004.82 1005.43 1006.20 1006.61 1007.10 1007.83 1008.77 1009.86 1011.01 1012.00 1012.88 1013.54 1014.32 1015.08 1015.75 1015.99 1016.02 1016.20 1016.43 1016.68 1016.96 1017.05 1017.06 1017.30 1017.60
1002.32 1001.74 1001.59 1001.07 1000.38 999.98 999.18 998.22 996.84 995.82 995.50 996.15 997.40 1000.54 1002.70 1004.02 1005.06 1005.71 1005.96 1003.91 1004.39 1005.19 1006.41 1006.88 1007.57 1008.34 1009.38 1010.62 1011.72 1012.78 1013.48 1014.24 1014.77 1015.51 1015.78 1015.84 1016.01 1016.03 1016.01 1016.14 1016.60 1016.79 1017.12 1017.55
1001.57 1000.69 1000.96 1000.70 1000.01 999.43 998.91 998.36 997.38 996.54 995.80 995.73 996.68 999.90 1002.99 1003.43 1003.80 1005.54 1004.20 1002.47 1003.36 1004.09 1005.48 1006.31 1007.14 1007.83 1008.82 1010.05 1011.26 1012.31 1013.20 1014.04 1014.56 1015.08 1015.60 1015.73 1015.85 1015.87 1015.97 1016.40 1016.70 1016.78 1017.05 1017.33
1001.07 1000.93 999.95 1000.04 999.76 999.43 998.72 998.40 998.17 997.48 996.92 996.06 996.65 998.28 1000.96 1002.69 1004.10 1003.58 1003.62 1003.51 1002.07 1003.20 1004.60 1005.74 1006.40 1007.17 1008.14 1009.45 1010.79 1011.96 1012.87 1013.72 1014.42 1014.91 1015.26 1015.45 1015.48 1015.63 1015.81 1016.64 1016.58 1016.65 1016.85 1017.15
1000.68 1000.26 999.97 999.40 999.28 999.53 998.96 998.66 998.29 998.42 997.85 997.18 996.39 997.26 998.13 1000.48 1001.60 1002.70 1002.75 1003.54 1001.69 1001.87 1003.27 1004.41 1005.36 1006.31 1007.38 1008.74 1009.99 1011.34 1012.57 1013.42 1014.10 1014.65 1014.90 1015.26 1015.42 1015.34 1015.35 1015.61 1016.01 1016.58 1016.73 1016.89
1000.85 1000.16 999.70 999.39 999.34 999.50 999.50 999.38 999.06 998.61 998.33 997.38 996.91 996.50 996.60 998.71 999.93 1000.92 1000.52 1001.93 1001.26 1000.64 1002.07 1003.05 1004.24 1005.59 1006.62 1007.90 1009.23 1010.51 1011.82 1012.85 1013.69 1014.40 1014.77 1014.94 1015.19 1015.19 1015.23 1015.50 1015.94 1016.43 1016.71 1016.96
1000.92 1000.48 999.90 999.44 999.53 999.57 999.74 999.49 999.26 998.85 997.89 996.99 997.05 996.37 995.46 995.00 996.48 997.48 998.43 999.40 999.35 999.96 1000.86 1002.05 1003.08 1004.25 1005.55 1006.65 1007.94 1009.34 1010.91 1012.05 1012.97 1013.71 1014.28 1014.64 1014.89 1015.12 1015.24 1015.27 1015.63 1015.97 1016.30 1016.65
1001.10 999.97 999.68 999.65 999.09 999.05 999.15 999.45 998.97 998.18 997.35 996.65 996.41 995.04 994.86 994.39 994.54 995.70 996.53 996.48 998.05 999.03 1000.07 1001.04 1001.98 1003.10 1004.48 1005.71 1006.98 1008.26 1009.79 1011.08 1012.20 1012.92 1013.64 1014.31 1014.51 1014.77 1015.06 1015.06 1015.10 1015.39 1015.60 1015.67
1002.70 1001.11 999.78 999.29 999.12 999.31 998.87 998.88 999.15 998.47 997.46 996.42 995.09 994.32 994.38 993.81 994.11 995.54 996.66 997.87 998.79 1000.69 998.99 1000.20 1001.01 1002.13 1003.38 1004.67 1005.89 1007.11 1008.65 1010.10 1011.17 1012.16 1013.07 1013.66 1014.06 1014.28 1014.52 1014.75 1014.97 1015.24 1015.21 1015.35
1005.12 1003.64 1001.66 1000.39 999.21 998.76 999.12 998.86 998.86 998.54 997.53 996.11 994.72 993.16 992.44 992.95 993.23 994.22 995.62 997.74 999.24 1000.98 1000.78 999.00 1000.10 1000.94 1002.15 1003.49 1004.90 1006.44 1007.75 1009.10 1010.17 1011.19 1012.04 1012.85 1013.38 1013.77 1014.16 1014.48 1014.74 1014.96 1015.03 1015.10
1006.83 1005.85 1003.58 1002.11 1000.81 999.73 999.68 999.11 998.75 998.55 998.14 996.86 995.42 993.15 991.48 991.44 992.24 993.28 995.19 997.52 998.97 1001.89 1000.18 999.35 999.31 999.86 1000.84 1002.14 1003.74 1005.14 1006.66 1008.08 1009.35 1010.42 1011.31 1012.10 1012.80 1013.35 1013.80 1013.99 1014.37 1014.63 1014.88 1015.02
1008.47 1007.56 1005.68 1003.75 1002.00 1001.04 1000.26 999.85 999.55 999.13 998.78 997.25 996.05 993.40 992.54 991.87 991.68 992.68 993.98 995.82 996.54 998.79 1002.75 999.70 999.18 998.04 999.46 1000.72 1002.26 1003.64 1005.21 1006.63 1008.04 1009.29 1010.38 1011.22 1011.97 1012.61 1013.02 1013.53 1013.64 1014.12 1014.50 1014.78
1011.12 1009.26 1007.45 1005.76 1004.25 1002.31 1001.30 1000.86 1000.54 1000.01 999.44 997.99 996.72 994.82 993.96 993.60 992.43 992.63 993.70 994.75 995.42 996.53 999.77 998.63 997.95 997.03 998.64 999.96 1001.13 1002.49 1003.96 1005.42 1006.99 1008.32 1009.46 1010.34 1011.04 1011.58 1012.11 1012.69 1013.10 1013.40 1013.94 1014.42
1012.62 1011.64 1010.41 1008.08 1005.72 1005.46 1003.40 1001.88 1001.20 1000.38 999.55 998.58 997.70 996.57 996.14 995.80 996.37 994.96 995.36 995.94 996.51 996.79 996.75 996.89 997.04 996.95 997.60 998.99 1000.27 1001.52 1002.85 1004.19 1005.69 1007.06 1008.22 1009.20 1009.98 1010.53 1011.18 1011.84 1012.50 1012.84 1013.21 1013.77
1012.96 1012.26 1011.64 1010.01 1008.74 1007.80 1005.82 1003.90 1002.40 1001.30 1000.79 999.78 999.12 998.51 1000.61 1000.65 1000.30 998.65 997.68 997.23 997.50 998.02 998.04 998.10 997.92 999.07 998.66 999.14 999.63 1000.61 1001.83 1003.18 1004.34 1005.66 1006.94 1007.71 1008.66 1009.72 1010.51 1011.02 1011.59 1012.18 1012.64 1013.04
1013.21 1013.12 1012.76 1011.59 1010.23 1009.34 1007.11 1005.58 1003.95 1002.89 1002.06 1001.47 1000.82 1000.17 1002.55 1002.71 1002.40 1001.64 1000.51 999.76 999.43 999.57 999.77 999.83 1000.00 1000.04 999.90 1000.47 998.89 1000.00 1000.88 1002.12 1003.42 1004.51 1005.46 1006.75 1007.88 1008.80 1009.54 1010.27 1010.80 1011.47 1011.89 1012.26
1013.06 1014.60 1013.82 1012.68 1011.46 1009.88 1007.90 1006.26 1004.83 1004.04 1003.27 1003.10 1002.57 1002.29 1002.64 1003.55 1002.69 1003.94 1003.37 1002.82 1002.15 1001.97 1001.99 1001.80 1001.40 1001.26 1001.59 1001.37 1001.40 1000.21 1000.55 1001.50 1002.50 1003.54 1004.65 1005.69 1006.66 1007.62 1008.47 1009.19 1009.97 1010.45 1010.98 1011.46
1012.89 1013.32 1014.82 1013.78 1013.10 1011.31 1008.44 1006.79 1005.87 1004.90 1004.26 1003.92 1003.55 1003.82 1003.05 1004.87 1005.76 1005.37 1004.87 1004.24 1004.25 1004.38 1004.26 1003.71 1002.86 1002.40 1001.92 1002.51 1000.24 1001.64 1000.49 1000.84 1001.93 1002.82 1003.69 1004.70 1005.68 1006.52 1007.52 1008.38 1008.94 1009.58 1010.08 1010.52
1012.93 1013.59 1013.88 1014.65 1013.26 1012.60 1009.78 1008.89 1008.46 1006.91 1005.49 1005.86 1006.18 1006.42 1006.80 1006.20 1005.80 1007.43 1007.40 1005.90 1005.74 1005.90 1005.63 1005.49 1004.90 1004.18 1003.21 1002.26 1002.10 1001.40 1001.04 1001.06 1001.22 1002.04 1002.85 1003.74 1004.70 1005.68 1006.60 1007.41 1008.01 1008.66 1009.35 1009.79
1014.29 1013.68 1013.88 1013.74 1013.44 1012.17 1011.12 1010.48 1010.03 1009.37 1007.95 1008.13 1008.90 1009.29 1009.32 1008.94 1008.30 1009.28 1009.04 1007.98 1007.23 1007.11 1007.08 1007.05 1006.34 1005.50 1004.85 1004.20 1003.34 1002.05 1001.68 1001.26 1001.13 1001.31 1002.04 1003.10 1003.98 1004.81 1005.58 1006.26 1007.06 1007.71 1008.33 1008.73
1015.71 1015.54 1015.61 1014.32 1013.19 1012.05 1011.89 1012.07 1011.49 1011.15 1010.85 1010.39 1010.38 1010.70 1010.97 1010.75 1010.90 1010.52 1010.00 1009.42 1008.65 1007.98 1008.06 1007.98 1007.28 1006.62 1006.36 1005.97 1005.38 1004.16 1002.56 1001.52 1001.07 1001.02 1001.64 1002.19 1002.99 1003.78 1004.56 1005.55 1006.33 1006.84 1007.39 1007.91
1017.64 1017.50 1016.62 1015.75 1014.70 1013.56 1013.22 1012.68 1012.63 1012.37 1012.29 1011.88 1011.88 1011.66 1011.53 1012.06 1011.92 1011.16 1010.46 1009.68 1009.25 1008.46 1008.54 1008.49 1007.83 1007.16 1006.74 1006.71 1006.32 1005.40 1004.25 1002.77 1001.10 1000.63 1000.77 1001.49 1002.19 1002.98 1003.78 1004.68 1005.44 1006.10 1006.63 1007.21
1018.80 1019.60 1019.41 1018.32 1016.50 1014.99 1015.73 1015.78 1015.50 1013.74 1013.28 1012.94 1013.08 1012.91 1012.33 1011.60 1012.18 1012.12 1011.29 1010.05 1009.14 1008.86 1009.07 1008.83 1008.06 1007.30 1006.96 1006.99 1006.73 1005.89 1003.82 1002.62 1001.92 1000.22 1000.24 1000.86 1001.56 1002.27 1002.98 1003.80 1004.63 1005.32 1005.86 1006.25
1019.38 1020.24 1020.08 1019.23 1017.15 1017.28 1017.38 1016.81 1016.96 1016.60 1015.72 1015.22 1014.45 1013.74 1013.16 1012.23 1011.72 1011.42 1010.91 1010.44 1009.90 1009.34 1009.18 1008.91 1008.20 1007.74 1007.72 1007.44 1007.13 1006.43 1005.21 1003.49 1002.47 1000.09 999.95 1000.44 1000.96 1001.66 1002.42 1003.00 1003.72 1004.31 1004.79 1005.29
1020.41 1020.84 1020.47 1019.70 1018.72 1018.96 1017.33 1018.21 1018.04 1017.52 1016.95 1016.06 1015.10 1014.30 1013.55 1012.92 1011.96 1011.74 1010.84 1010.44 1010.07 1009.65 1009.17 1009.00 1008.63 1008.50 1008.40 1008.21 1007.80 1007.35 1006.42 1004.95 1003.71 1001.46 1000.10 1000.37 1000.82 1001.45 1001.99 1002.43 1002.60 1003.12 1003.54 1003.90
1020.51 1021.02 1021.29 1020.72 1020.69 1020.54 1019.83 1019.11 1018.43 1017.65 1016.91 1016.34 1015.67 1014.76 1014.03 1012.98 1012.29 1012.15 1011.45 1011.15 1010.46 1010.28 1009.81 1009.50 1009.11 1008.86 1008.67 1008.54 1008.24 1007.77 1007.18 1006.34 1004.87 1002.75 1001.88 1001.06 1000.83 1001.16 1001.58 1001.96 1002.68 1003.01 1002.90 1003.40
Wind_Speed
17 11 17 19 20 20 20 20 17 17 18 19 16 16 15 9 3 11 16 20 25 23 19 19 18 18 18 15 16 12 10 14 10 8 6 5 5 4 6 6 8 5 5 6
15 19 18 18 20 21 21 21 19 17 18 17 18 20 20 13 12 29 29 22 21 25 23 18 18 19 19 18 17 13 11 14 10 8 6 5 5 5 4 5 6 6 5 6
19 15 22 21 18 19 18 19 18 17 17 15 16 16 15 9 3 13 25 24 22 23 26 22 20 19 18 19 18 16 13 14 11 8 6 4 5 3 3 5 6 4 6 6
19 21 18 20 21 18 19 16 19 18 16 13 17 15 26 20 15 17 10 11 24 23 25 23 23 20 20 19 17 17 14 14 11 9 8 6 5 4 4 6 7 6 7 6
16 21 21 19 17 21 17 16 14 16 18 19 22 14 7 26 26 13 16 23 21 25 26 27 25 21 21 19 19 17 16 14 13 12 8 8 7 6 5 5 8 7 5 5
16 17 20 22 17 14 15 16 18 17 15 16 20 18 17 18 19 15 22 26 21 26 24 25 25 23 20 19 20 19 19 16 14 14 12 10 11 7 5 4 7 8 7 4
17 19 20 17 19 22 18 15 12 14 14 16 19 20 14 14 29 28 26 25 25 22 25 22 24 23 22 23 23 20 22 19 18 18 14 11 12 10 7 7 8 9 8 8
14 11 21 17 20 19 18 19 15 18 13 16 20 19 17 23 20 30 32 23 28 26 22 24 24 22 23 22 23 22 23 21 20 18 18 13 12 9 7 6 6 4 6 8
12 14 18 13 24 21 20 22 20 24 20 18 16 18 24 21 18 8 10 6 10 16 26 26 24 24 24 23 23 23 23 22 21 20 15 15 12 11 10 7 5 6 5 1
11 17 19 15 16 25 21 17 20 16 21 21 18 19 15 19 19 19 16 7 5 16 31 24 24 24 22 23 21 21 20 23 22 22 18 16 16 15 9 10 8 7 5 5
13 13 20 20 11 14 13 19 21 15 17 16 15 15 14 23 21 17 21 22 22 24 21 9 23 23 23 23 22 21 21 22 21 20 19 18 16 16 15 10 11 11 8 6
17 9 14 18 21 14 14 18 19 12 15 14 17 17 17 13 22 19 13 21 22 21 17 35 22 25 24 23 23 23 22 21 21 20 19 19 17 18 17 15 13 12 8 6
13 8 12 15 17 19 15 17 21 20 20 20 15 18 5 10 6 16 16 11 5 24 34 34 30 20 21 22 21 21 22 22 21 19 19 19 18 18 18 18 15 14 14 11
8 12 18 16 15 19 16 19 22 20 17 17 18 19 2 7 23 12 15 16 14 12 10 8 5 16 18 21 20 19 20 21 20 21 20 20 20 19 18 17 17 15 13 14
9 15 19 22 22 24 22 21 18 18 22 21 18 17 14 20 24 16 10 11 12 10 14 14 17 12 8 18 18 18 18 19 20 19 21 21 19 18 17 16 17 16 16 14
4 13 13 20 22 19 24 24 21 19 15 20 19 18 19 3 12 19 17 16 15 15 15 17 18 17 13 17 19 18 18 18 16 18 20 19 18 18 18 17 16 16 16 16
8 9 8 12 18 21 21 23 19 19 18 16 18 16 7 10 6 11 17 10 15 17 18 16 15 14 13 9 24 15 15 14 16 15 17 18 18 19 19 17 17 17 18 16
14 12 5 7 13 11 13 20 17 24 23 20 20 18 20 7 8 12 12 12 13 15 16 16 15 16 17 16 17 14 9 15 13 15 15 16 17 18 18 18 18 17 15 17
12 13 5 5 11 13 28 8 10 19 10 15 16 19 20 17 3 17 18 17 15 15 14 15 15 16 17 16 16 12 12 8 18 16 15 16 17 17 18 18 18 17 15 15
14 14 13 12 11 6 15 6 7 13 11 15 15 15 16 13 12 7 16 18 15 13 13 15 16 14 14 17 22 17 13 12 14 17 15 13 16 16 18 18 18 16 15 16
9 4 11 14 14 13 5 2 13 11 5 14 14 12 11 10 11 15 14 14 17 11 14 15 14 11 11 13 16 18 15 14 11 15 16 15 15 17 16 15 15 14 16 15
5 6 4 6 9 12 15 5 7 8 10 12 14 15 13 10 11 14 16 16 13 12 12 15 13 13 12 14 14 16 15 18 17 11 16 16 15 13 13 16 14 15 14 15
1 2 3 4 8 22 19 15 20 15 12 13 11 14 17 18 12 12 12 14 14 13 10 12 12 13 13 13 13 16 19 19 21 11 14 16 14 14 13 15 15 13 14 13
4 5 4 10 8 21 20 10 12 13 13 18 15 17 16 18 16 18 13 11 12 13 11 11 12 13 13 12 13 15 19 19 20 14 12 12 13 13 14 11 13 12 12 13
2 7 6 10 9 19 11 19 16 15 16 17 16 17 17 17 15 15 15 12 10 11 11 11 10 10 11 11 11 13 16 18 17 12 7 9 10 11 12 13 12 13 13 13
4 3 2 4 13 10 13 17 18 17 15 15 16 18 18 17 14 15 14 12 10 10 10 8 11 9 11 11 10 12 14 16 15 12 9 5 8 9 11 11 9 8 8 11
Wind_Direction
209 210 218 229 232 243 267 279 243 236 217 235 202 133 147 129 225 288 259 177 170 178 187 173 177 166 160 169 160 173 175 150 157 158 190 221 155 180 178 173 184 152 154 134
195 228 233 233 235 235 254 268 277 278 244 230 204 155 159 151 183 214 243 172 187 173 175 186 187 172 169 171 162 173 170 156 162 163 199 203 170 215 180 139 138 146 164 141
232 229 217 242 239 245 235 253 264 275 289 234 237 148 164 213 276 236 235 170 183 173 173 181 186 180 175 170 166 169 171 159 167 185 196 219 202 196 186 114 141 181 170 169
237 242 260 214 241 242 247 239 260 274 273 264 221 250 177 163 208 208 196 286 175 186 170 181 185 186 181 170 166 166 173 164 177 195 186 195 207 191 179 138 195 169 171 183
247 238 242 245 231 243 253 256 252 249 265 273 261 228 237 168 182 170 147 252 204 179 180 182 188 189 182 171 170 169 174 170 178 200 196 187 216 215 192 188 151 153 174 180
278 273 243 245 245 252 258 252 267 263 238 250 253 259 222 168 187 194 188 209 225 172 189 187 182 180 186 178 174 170 174 180 181 196 211 188 207 226 190 187 147 156 167 191
233 243 262 246 244 241 235 238 235 236 235 239 235 250 255 213 183 182 197 214 183 176 179 191 181 182 184 183 179 174 174 182 184 186 203 210 198 219 249 188 177 177 179 185
291 268 211 240 239 239 220 229 230 229 234 238 227 238 229 261 269 185 192 187 180 182 177 185 182 183 182 187 182 181 175 180 183 188 196 202 200 212 218 205 192 193 202 195
322 265 294 286 223 224 240 219 246 257 250 246 241 215 242 232 232 156 105 138 166 305 174 183 181 182 179 186 186 184 175 181 183 193 191 196 203 212 202 219 208 200 240 138
308 309 300 280 291 227 230 250 219 243 250 261 260 253 203 218 231 197 171 122 97 271 284 182 181 179 181 185 186 184 179 183 187 187 190 195 200 198 213 204 214 213 232 220
319 293 289 300 272 262 226 241 254 265 235 256 257 264 256 194 206 223 162 158 158 220 277 250 181 180 180 178 184 184 186 180 185 188 194 195 195 204 204 213 207 197 220 234
317 305 290 275 277 278 282 285 246 246 256 251 259 259 23 9 192 204 217 174 169 144 198 252 243 176 178 178 181 186 185 185 187 189 191 197 199 198 201 210 202 200 204 195
348 314 298 260 274 268 253 252 258 265 246 264 242 252 291 345 290 197 193 243 201 183 178 201 220 174 173 179 179 184 187 189 183 188 195 196 201 199 204 202 210 194 200 205
320 280 276 286 294 329 308 252 258 260 248 242 250 266 70 20 14 79 63 56 45 28 39 31 50 175 173 175 178 181 185 185 190 186 193 200 201 203 202 201 202 209 196 196
290 271 271 274 290 311 290 288 288 270 262 267 273 250 27 11 354 15 23 67 66 40 28 25 26 24 154 208 175 178 181 188 186 191 193 198 201 202 201 203 200 203 206 202
314 279 278 287 277 273 279 269 262 271 278 283 282 296 99 310 319 332 14 25 38 39 29 18 12 4 23 319 169 179 183 185 192 191 193 195 194 196 205 204 205 200 206 204
235 195 288 285 283 290 264 254 260 264 255 255 262 275 271 39 264 6 355 5 15 16 15 6 1 345 345 18 306 175 184 187 190 195 193 190 192 196 198 202 204 206 203 206
265 252 243 272 297 263 257 266 284 247 262 255 265 281 282 118 35 13 344 15 25 15 358 351 350 340 331 333 336 339 201 187 200 195 192 190 192 194 195 200 205 208 207 206
258 272 200 250 265 277 283 26 357 347 261 24 10 15 25 13 9 52 4 358 15 4 357 349 342 333 324 317 305 312 312 266 195 207 201 192 191 193 193 199 205 206 208 209
330 302 265 239 244 277 32 348 348 320 257 24 17 20 5 340 209 27 354 339 360 7 358 346 328 331 335 338 332 320 295 277 221 202 201 197 190 192 196 198 201 202 206 211
322 360 258 265 270 249 182 60 331 260 11 358 355 360 356 338 340 325 325 325 329 14 354 344 332 340 357 337 332 319 302 287 266 206 203 195 192 195 195 196 198 202 205 208
307 327 333 292 249 266 16 247 260 326 322 326 336 336 328 323 322 318 322 310 325 346 356 338 338 335 356 351 345 327 329 337 270 245 192 204 199 193 191 194 199 203 204 208
324 88 291 285 320 311 0 338 324 329 314 321 328 319 320 312 320 312 310 311 320 327 349 335 338 340 349 349 348 331 337 337 328 240 194 196 195 196 199 194 201 203 205 208
55 39 283 328 341 336 322 304 341 338 339 322 311 303 301 299 305 307 307 323 317 320 332 330 336 344 344 348 352 340 336 336 323 224 182 189 189 192 197 203 198 204 203 205
16 327 318 283 313 330 336 337 330 317 311 296 301 298 296 292 287 291 297 307 300 312 320 326 328 335 340 340 350 346 339 339 331 319 190 188 193 192 197 211 200 203 209 207
178 206 248 300 319 295 294 312 317 310 314 308 299 293 288 281 285 273 279 284 298 300 301 314 315 335 337 343 346 347 346 339 340 348 2 284 212 200 205 204 214 42 226 145